{"data":{"norad_id":63254,"intl_designator":"2025-052AW","name":"YAM-8","alt_names":[],"object_type":"PAYLOAD","status":"ACTIVE","operator":null,"country":"US","launch_date":"2025-03-15","launch_site_code":"AFWTR","launch_vehicle":null,"mission":null,"orbit_class":"UNKNOWN","rcs_meters":null,"size_class":null,"mass_kg":null,"dimensions":null,"purposes":[],"wikipedia_slug":null,"has_3d_model":false,"image_url":null,"decayed_at":null,"tle_current":{"epoch":"2026-09-22T20:49:34.563360Z","epoch_age_seconds":104239,"freshness":"FRESH","line1":"1 63254U 25052AW  26265.86776115  .00003220  00000+0  20618-3 0  9992","line2":"2 63254  97.6823 167.7841 0002956 129.7148 230.4341 15.09284470 84015","mean_motion":15.0928447,"eccentricity":0.0002956,"inclination_deg":97.6823,"raan_deg":167.7841,"arg_perigee_deg":129.7148,"mean_anomaly_deg":230.4341,"bstar":0.00020618,"rev_number":8401,"period_min":95.409449220663,"perigee_km":536.3406314531,"apogee_km":540.42967935137,"semimajor_km":6916.5221554022,"source":"CELESTRAK","updated_at":"2026-09-23T09:00:21.938864Z"}}}